WXM80 ListenWXM80 Stop

You find our weather info also at:

UK Metoffice

WeatherCloud

Weather Underground

Northeastern Weather Network

AWEKAS

Citizen Weather Observer Program (CWOP)

HAMweather, WeatherForYou, PWS Weather


Weather Underground History page Text

Daily Summary for May 5, 2017 Units:  English    Metric   Both
« Previous Day
Next Day »
Daily Weekly Monthly Yearly Custom
  High: Low: Average:
Temperature: 60.9 °F 49.7 °F 55 °F
Dew Point: 60.3 °F 43.2 °F 53.1 °F
Humidity: 98 % 77 % 93 %
Wind Speed: 10.4 mph 0.0 mph 2.7 mph
Wind Gust: 19.6 mph - -
Wind:- - SE
Pressure: 30.10 in 29.51 in -
Precipitation: 1.41 in    
Historical Graphs
 
 
Tabular Data for May 5, 2017
Time Temperature Dew Point Pressure Wind Wind Speed Wind Gust Humidity Rainfall Rate (Hourly)
00:04 50.2 °F 43.3 °F 30.10 in SE 0.2 mph 1.2 mph 77 % 0.00 in
00:09 50.2 °F 43.3 °F 30.10 in SE 0.5 mph 1.2 mph 77 % 0.00 in
00:14 50.1 °F 43.2 °F 30.09 in Calm   1.0 mph 77 % 0.00 in
00:19 50.1 °F 43.2 °F 30.09 in Calm     77 % 0.00 in
00:24 50.1 °F 43.2 °F 30.09 in SE 0.1 mph 1.2 mph 77 % 0.00 in
00:29 50.1 °F 43.2 °F 30.09 in SE 0.3 mph 1.2 mph 77 % 0.00 in
00:34 50.1 °F 43.2 °F 30.09 in SE 0.7 mph 1.2 mph 77 % 0.00 in
00:39 50.1 °F 43.2 °F 30.09 in Calm   1.2 mph 77 % 0.00 in
00:44 50.2 °F 43.6 °F 30.09 in Calm   1.2 mph 78 % 0.00 in
00:49 50.2 °F 43.6 °F 30.09 in Calm   1.2 mph 78 % 0.00 in
00:54 50.2 °F 43.6 °F 30.08 in SE 1.0 mph 2.3 mph 78 % 0.00 in
01:00 50.2 °F 43.6 °F 30.08 in ESE 0.6 mph 3.5 mph 78 % 0.00 in
01:05 50.2 °F 43.6 °F 30.08 in ESE 0.3 mph 3.5 mph 78 % 0.00 in
01:10 50.3 °F 43.7 °F 30.08 in ESE 0.5 mph 3.5 mph 78 % 0.00 in
01:15 50.3 °F 43.7 °F 30.08 in SSE 1.9 mph 2.3 mph 78 % 0.00 in
01:20 50.3 °F 43.7 °F 30.08 in SE 0.3 mph 1.2 mph 78 % 0.00 in
01:25 50.3 °F 44.0 °F 30.08 in Calm   1.2 mph 79 % 0.00 in
01:30 50.3 °F 44.0 °F 30.08 in SE 0.8 mph 2.3 mph 79 % 0.00 in
01:35 50.3 °F 44.0 °F 30.08 in SE 0.2 mph 1.2 mph 79 % 0.00 in
01:40 50.3 °F 44.0 °F 30.08 in Calm     79 % 0.00 in
01:45 50.3 °F 44.4 °F 30.08 in Calm     80 % 0.00 in
01:50 50.3 °F 44.4 °F 30.08 in SE 0.2 mph 1.2 mph 80 % 0.00 in
01:55 50.4 °F 44.5 °F 30.07 in Calm   1.2 mph 80 % 0.00 in
02:00 50.4 °F 44.5 °F 30.07 in Calm   1.2 mph 80 % 0.00 in
02:05 50.4 °F 44.8 °F 30.07 in Calm     81 % 0.00 in
02:10 50.4 °F 44.8 °F 30.07 in Calm     81 % 0.00 in
02:15 50.4 °F 44.8 °F 30.06 in SE 0.2 mph 1.2 mph 81 % 0.00 in
02:20 50.5 °F 44.9 °F 30.06 in Calm     81 % 0.00 in
02:25 50.5 °F 45.2 °F 30.05 in SE 0.5 mph 1.2 mph 82 % 0.00 in
02:30 50.5 °F 45.2 °F 30.05 in SE 0.2 mph 1.2 mph 82 % 0.00 in
02:35 50.5 °F 45.5 °F 30.04 in ESE 0.1 mph 1.2 mph 83 % 0.00 in
02:40 50.5 °F 45.8 °F 30.03 in ESE 1.0 mph 2.3 mph 84 % 0.00 in
02:45 50.5 °F 45.8 °F 30.03 in East 1.9 mph 3.5 mph 84 % 0.00 in
02:50 50.5 °F 46.5 °F 30.02 in East 1.5 mph 3.5 mph 86 % 0.00 in
02:55 50.4 °F 46.7 °F 30.01 in East 2.0 mph 3.5 mph 87 % 0.01 in
03:00 50.3 °F 46.9 °F 30.01 in East 2.9 mph 4.6 mph 88 % 0.01 in
03:05 50.1 °F 46.7 °F 30.01 in East 2.3 mph 3.5 mph 88 % 0.01 in
03:10 50.1 °F 47.0 °F 30.01 in East 1.7 mph 3.5 mph 89 % 0.01 in
03:15 50.0 °F 46.9 °F 30.02 in ESE 2.5 mph 3.5 mph 89 % 0.01 in
03:20 49.9 °F 47.1 °F 30.02 in SE 1.8 mph 5.8 mph 90 % 0.01 in
03:25 49.8 °F 47.0 °F 30.02 in East 2.1 mph 4.6 mph 90 % 0.01 in
03:30 49.8 °F 47.0 °F 30.02 in ESE 2.4 mph 3.5 mph 90 % 0.01 in
03:35 49.7 °F 46.9 °F 30.01 in East 1.6 mph 4.6 mph 90 % 0.01 in
03:40 49.7 °F 47.2 °F 30.01 in East 1.9 mph 3.5 mph 91 % 0.01 in
03:45 49.7 °F 47.2 °F 30.00 in East 2.3 mph 4.6 mph 91 % 0.01 in
03:50 49.7 °F 47.2 °F 30.01 in ESE 1.1 mph 3.5 mph 91 % 0.01 in
03:55 49.7 °F 47.2 °F 30.01 in SE 1.2 mph 4.6 mph 91 % 0.00 in
04:00 49.7 °F 47.2 °F 30.00 in ESE 2.3 mph 3.5 mph 91 % 0.00 in
04:05 49.7 °F 47.2 °F 30.00 in ESE 1.0 mph 2.3 mph 91 % 0.00 in
04:10 49.7 °F 47.2 °F 30.00 in East 2.1 mph 3.5 mph 91 % 0.00 in
04:15 49.8 °F 47.3 °F 30.00 in East 1.7 mph 3.5 mph 91 % 0.00 in
04:20 49.8 °F 47.6 °F 29.99 in East 2.1 mph 3.5 mph 92 % 0.00 in
04:25 49.8 °F 47.6 °F 29.99 in East 0.7 mph 3.5 mph 92 % 0.00 in
04:30 49.8 °F 47.6 °F 29.99 in East 1.5 mph 3.5 mph 92 % 0.00 in
04:35 49.8 °F 47.6 °F 29.98 in East 2.5 mph 3.5 mph 92 % 0.00 in
04:40 49.8 °F 47.6 °F 29.97 in East 2.6 mph 4.6 mph 92 % 0.00 in
04:45 49.9 °F 47.7 °F 29.97 in East 2.8 mph 5.8 mph 92 % 0.00 in
04:50 49.9 °F 47.7 °F 29.97 in East 2.4 mph 4.6 mph 92 % 0.00 in
04:55 50.0 °F 48.1 °F 29.99 in East 1.0 mph 2.3 mph 93 % 0.00 in
05:01 50.0 °F 48.1 °F 29.98 in SE 1.9 mph 4.0 mph 93 % 0.00 in
05:06 50.0 °F 47.8 °F 29.99 in East 2.2 mph 5.8 mph 92 % 0.00 in
05:07 50.0 °F 47.8 °F 29.99 in East 1.8 mph 3.5 mph 92 % 0.00 in
05:12 50.0 °F 47.8 °F 29.97 in East 3.4 mph 5.8 mph 92 % 0.00 in
05:17 50.0 °F 47.8 °F 29.97 in ESE 0.9 mph 2.3 mph 92 % 0.00 in
05:22 50.1 °F 47.9 °F 29.97 in ESE 0.7 mph 2.3 mph 92 % 0.00 in
05:27 50.1 °F 47.9 °F 29.97 in ESE 1.7 mph 3.5 mph 92 % 0.00 in
05:32 50.1 °F 47.9 °F 29.97 in ESE 1.7 mph 3.0 mph 92 % 0.00 in
05:37 50.1 °F 47.9 °F 29.97 in ESE 0.7 mph 3.5 mph 92 % 0.00 in
05:42 50.2 °F 48.0 °F 29.97 in ESE 0.8 mph 2.3 mph 92 % 0.00 in
05:47 50.2 °F 48.0 °F 29.97 in ESE 0.7 mph 2.0 mph 92 % 0.00 in
05:52 50.3 °F 48.1 °F 29.96 in ESE 0.7 mph 3.5 mph 92 % 0.00 in
05:57 50.3 °F 48.1 °F 29.96 in ESE 2.0 mph 3.5 mph 92 % 0.00 in
06:03 50.4 °F 48.5 °F 29.96 in ESE 1.1 mph 3.5 mph 93 % 0.00 in
06:08 50.5 °F 48.6 °F 29.95 in East 2.5 mph 3.0 mph 93 % 0.00 in
06:13 50.6 °F 48.7 °F 29.95 in East 2.9 mph 5.0 mph 93 % 0.00 in
06:18 50.7 °F 48.7 °F 29.95 in East 2.1 mph 3.5 mph 93 % 0.00 in
06:23 50.8 °F 48.8 °F 29.95 in East 2.9 mph 4.6 mph 93 % 0.00 in
06:24 50.8 °F 48.8 °F 29.95 in East 2.0 mph 3.5 mph 93 % 0.00 in
06:29 50.8 °F 48.6 °F 29.95 in East 2.2 mph 5.0 mph 92 % 0.00 in
06:34 50.9 °F 48.7 °F 29.95 in East 3.1 mph 4.6 mph 92 % 0.00 in
06:39 51.0 °F 49.0 °F 29.95 in East 3.4 mph 4.6 mph 93 % 0.00 in
06:42 51.1 °F 49.1 °F 29.95 in East 2.5 mph 5.8 mph 93 % 0.00 in
06:47 51.1 °F 49.1 °F 29.95 in East 3.2 mph 5.0 mph 93 % 0.00 in
06:52 51.2 °F 49.2 °F 29.94 in East 2.7 mph 5.0 mph 93 % 0.00 in
06:57 51.2 °F 49.2 °F 29.94 in East 2.7 mph 4.6 mph 93 % 0.00 in
07:02 51.2 °F 49.0 °F 29.94 in ENE 2.6 mph 4.0 mph 92 % 0.00 in
07:07 51.3 °F 49.1 °F 29.94 in ENE 2.4 mph 4.0 mph 92 % 0.00 in
07:12 51.3 °F 49.1 °F 29.93 in East 3.8 mph 5.8 mph 92 % 0.00 in
07:17 51.4 °F 49.2 °F 29.93 in East 3.7 mph 5.8 mph 92 % 0.00 in
07:23 51.4 °F 49.2 °F 29.93 in East 3.4 mph 6.0 mph 92 % 0.00 in
07:28 51.4 °F 49.2 °F 29.93 in East 3.4 mph 5.8 mph 92 % 0.00 in
07:33 51.5 °F 49.3 °F 29.93 in East 4.2 mph 6.9 mph 92 % 0.00 in
07:38 51.5 °F 49.5 °F 29.93 in East 4.5 mph 6.9 mph 93 % 0.00 in
07:43 51.6 °F 49.6 °F 29.91 in East 4.4 mph 6.0 mph 93 % 0.00 in
07:48 51.7 °F 49.7 °F 29.91 in East 5.3 mph 6.9 mph 93 % 0.00 in
07:53 51.8 °F 49.8 °F 29.92 in East 4.5 mph 6.9 mph 93 % 0.00 in
07:58 51.9 °F 49.9 °F 29.91 in East 4.4 mph 5.8 mph 93 % 0.00 in
08:03 52.0 °F 50.0 °F 29.91 in East 4.1 mph 6.0 mph 93 % 0.00 in
08:08 52.1 °F 49.8 °F 29.91 in East 3.6 mph 6.0 mph 92 % 0.00 in
08:13 52.2 °F 49.9 °F 29.91 in East 3.7 mph 5.8 mph 92 % 0.00 in
08:18 52.4 °F 50.4 °F 29.90 in East 3.7 mph 6.0 mph 93 % 0.00 in
08:23 52.5 °F 50.2 °F 29.90 in East 3.7 mph 6.0 mph 92 % 0.00 in
08:28 52.6 °F 50.3 °F 29.89 in East 3.3 mph 5.8 mph 92 % 0.00 in
08:33 52.7 °F 50.4 °F 29.89 in East 3.8 mph 6.0 mph 92 % 0.00 in
08:34 52.8 °F 50.5 °F 29.89 in East 4.0 mph 5.8 mph 92 % 0.00 in
08:39 52.9 °F 50.6 °F 29.89 in East 4.6 mph 6.9 mph 92 % 0.00 in
08:44 53.0 °F 50.4 °F 29.89 in ENE 4.5 mph 7.0 mph 91 % 0.00 in
08:49 53.2 °F 50.6 °F 29.88 in East 2.6 mph 5.0 mph 91 % 0.00 in
08:54 53.5 °F 51.2 °F 29.88 in East 3.1 mph 5.8 mph 92 % 0.00 in
08:59 53.7 °F 51.1 °F 29.88 in East 4.9 mph 6.0 mph 91 % 0.00 in
09:04 53.9 °F 51.3 °F 29.87 in ESE 3.8 mph 5.8 mph 91 % 0.00 in
09:10 54.1 °F 51.5 °F 29.86 in East 4.4 mph 6.0 mph 91 % 0.00 in
09:15 54.3 °F 51.7 °F 29.85 in East 3.0 mph 6.9 mph 91 % 0.00 in
09:20 54.5 °F 51.9 °F 29.85 in East 2.7 mph 5.0 mph 91 % 0.00 in
09:25 54.6 °F 52.0 °F 29.85 in East 4.4 mph 7.0 mph 91 % 0.00 in
09:30 55.1 °F 52.5 °F 29.85 in East 3.6 mph 5.8 mph 91 % 0.00 in
09:35 55.4 °F 52.8 °F 29.84 in East 4.0 mph 5.8 mph 91 % 0.00 in
09:40 55.7 °F 52.8 °F 29.83 in East 3.6 mph 7.0 mph 90 % 0.00 in
09:45 56.0 °F 53.1 °F 29.83 in East 5.7 mph 8.1 mph 90 % 0.00 in
09:50 56.5 °F 53.6 °F 29.81 in East 4.8 mph 7.0 mph 90 % 0.00 in
09:55 56.8 °F 53.6 °F 29.81 in East 5.8 mph 8.1 mph 89 % 0.00 in
10:00 57.0 °F 53.2 °F 29.81 in ENE 4.8 mph 8.1 mph 87 % 0.00 in
10:05 56.9 °F 53.1 °F 29.81 in East 5.1 mph 6.9 mph 87 % 0.00 in
10:10 56.9 °F 53.1 °F 29.81 in East 3.6 mph 4.6 mph 87 % 0.00 in
10:15 56.8 °F 53.0 °F 29.80 in ESE 4.0 mph 9.2 mph 87 % 0.00 in
10:20 56.9 °F 53.1 °F 29.79 in East 5.2 mph 8.1 mph 87 % 0.00 in
10:25 56.9 °F 53.1 °F 29.80 in East 3.5 mph 4.6 mph 87 % 0.00 in
10:30 56.9 °F 53.1 °F 29.80 in ESE 2.5 mph 3.5 mph 87 % 0.00 in
10:35 56.8 °F 53.0 °F 29.80 in East 4.9 mph 6.9 mph 87 % 0.01 in
10:40 56.8 °F 53.0 °F 29.80 in East 2.1 mph 6.0 mph 87 % 0.01 in
10:45 56.8 °F 53.3 °F 29.80 in East 5.0 mph 9.0 mph 88 % 0.01 in
10:50 56.7 °F 53.5 °F 29.80 in ESE 3.6 mph 6.9 mph 89 % 0.01 in
10:55 56.5 °F 53.6 °F 29.79 in East 2.5 mph 4.6 mph 90 % 0.02 in
11:00 56.3 °F 53.7 °F 29.78 in East 5.5 mph 11.5 mph 91 % 0.03 in
11:06 56.0 °F 53.4 °F 29.78 in East 5.0 mph 12.0 mph 91 % 0.00 in
11:11 55.7 °F 53.4 °F 29.78 in East 6.0 mph 9.0 mph 92 % 0.00 in
11:16 55.5 °F 53.5 °F 29.78 in East 5.0 mph 10.0 mph 93 % 0.00 in
11:21 55.4 °F 53.4 °F 29.77 in East 6.0 mph 8.0 mph 93 % 0.00 in
11:26 55.2 °F 53.5 °F 29.77 in East 3.0 mph 6.0 mph 94 % 0.00 in
11:31 55.1 °F 53.4 °F 29.78 in East 2.0 mph 7.0 mph 94 % 0.00 in
11:36 55.0 °F 53.3 °F 29.76 in East 3.0 mph 6.0 mph 94 % 0.00 in
11:41 55.0 °F 53.6 °F 29.73 in East 7.0 mph 9.0 mph 95 % 0.00 in
11:46 55.0 °F 53.6 °F 29.73 in East 6.0 mph 10.0 mph 95 % 0.02 in
11:51 54.8 °F 53.4 °F 29.73 in East 5.0 mph 7.0 mph 95 % 0.01 in
11:56 54.7 °F 53.3 °F 29.74 in East 3.0 mph 6.0 mph 95 % 0.01 in
12:01 54.6 °F 53.2 °F 29.74 in ENE 3.5 mph 4.6 mph 95 % 0.29 in
12:06 54.4 °F 53.0 °F 29.73 in East 3.7 mph 8.1 mph 95 % 0.31 in
12:11 53.9 °F 52.5 °F 29.73 in ENE 4.3 mph 10.4 mph 95 % 0.33 in
12:16 53.6 °F 52.2 °F 29.73 in East 9.6 mph 14.0 mph 95 % 0.34 in
12:21 53.3 °F 51.9 °F 29.70 in ENE 10.4 mph 14.0 mph 95 % 0.37 in
12:26 53.0 °F 51.6 °F 29.71 in SE 4.9 mph 10.4 mph 95 % 0.38 in
12:31 52.7 °F 51.3 °F 29.70 in ENE 8.0 mph 11.5 mph 95 % 0.40 in
12:36 52.4 °F 51.0 °F 29.69 in NE 8.0 mph 15.0 mph 95 % 0.42 in
12:41 52.3 °F 51.2 °F 29.69 in ENE 10.2 mph 14.0 mph 96 % 0.43 in
12:46 52.3 °F 51.2 °F 29.69 in ENE 10.0 mph 17.3 mph 96 % 0.38 in
12:51 52.4 °F 51.3 °F 29.68 in East 3.8 mph 8.1 mph 96 % 0.34 in
12:56 52.8 °F 51.7 °F 29.68 in East 4.8 mph 6.9 mph 96 % 0.32 in
13:01 53.6 °F 52.8 °F 29.67 in East 1.6 mph 3.5 mph 97 % 0.30 in
13:06 54.8 °F 54.0 °F 29.66 in East 4.2 mph 10.4 mph 97 % 0.29 in
13:11 56.0 °F 55.4 °F 29.65 in ESE 6.3 mph 13.0 mph 98 % 0.26 in
13:16 56.7 °F 56.1 °F 29.65 in SE 8.3 mph 14.0 mph 98 % 0.23 in
13:21 57.1 °F 56.5 °F 29.65 in ESE 5.9 mph 10.4 mph 98 % 0.20 in
13:26 57.4 °F 56.8 °F 29.65 in ESE 4.0 mph 11.5 mph 98 % 0.17 in
13:31 57.7 °F 57.1 °F 29.64 in ESE 3.8 mph 8.1 mph 98 % 0.14 in
13:36 57.9 °F 57.3 °F 29.64 in ESE 7.6 mph 11.5 mph 98 % 0.12 in
13:41 58.0 °F 57.4 °F 29.64 in ESE 9.3 mph 19.6 mph 98 % 0.09 in
13:46 58.1 °F 57.5 °F 29.63 in SE 8.7 mph 18.4 mph 98 % 0.08 in
13:51 58.1 °F 57.5 °F 29.63 in ENE 5.7 mph 15.0 mph 98 % 0.06 in
13:56 58.1 °F 57.3 °F 29.62 in SE 9.4 mph 18.4 mph 97 % 0.05 in
14:01 58.1 °F 57.3 °F 29.62 in SE 7.3 mph 12.7 mph 97 % 0.05 in
14:06 58.2 °F 57.4 °F 29.62 in SSE 8.6 mph 15.0 mph 97 % 0.05 in
14:11 58.2 °F 57.4 °F 29.62 in SE 8.5 mph 15.0 mph 97 % 0.06 in
14:16 58.2 °F 57.4 °F 29.61 in ESE 6.0 mph 13.8 mph 97 % 0.07 in
14:21 58.4 °F 57.8 °F 29.63 in ESE 8.0 mph 15.0 mph 98 % 0.09 in
14:26 58.4 °F 57.8 °F 29.63 in SE 5.2 mph 12.0 mph 98 % 0.10 in
14:31 58.5 °F 57.9 °F 29.65 in SW 7.8 mph 17.3 mph 98 % 0.12 in
14:36 58.8 °F 58.2 °F 29.66 in West 6.3 mph 12.7 mph 98 % 0.14 in
14:41 58.9 °F 58.3 °F 29.65 in West 4.7 mph 6.9 mph 98 % 0.16 in
14:46 58.6 °F 57.8 °F 29.65 in SW 5.6 mph 9.2 mph 97 % 0.16 in
14:52 58.4 °F 57.6 °F 29.64 in WNW 1.4 mph 3.5 mph 97 % 0.18 in
14:57 58.1 °F 57.3 °F 29.64 in West 2.1 mph 4.0 mph 97 % 0.19 in
15:02 57.9 °F 57.1 °F 29.64 in WSW 3.1 mph 5.8 mph 97 % 0.20 in
15:07 57.7 °F 56.9 °F 29.64 in West 3.9 mph 6.9 mph 97 % 0.19 in
15:12 57.5 °F 56.7 °F 29.63 in WNW 3.7 mph 3.7 mph 97 % 0.20 in
15:17 57.4 °F 56.6 °F 29.63 in WNW 1.6 mph 3.5 mph 97 % 0.21 in
15:22 57.2 °F 56.4 °F 29.62 in WNW 0.8 mph 3.5 mph 97 % 0.20 in
15:27 57.1 °F 56.3 °F 29.61 in NNW 0.2 mph 2.3 mph 97 % 0.20 in
15:32 57.0 °F 56.2 °F 29.61 in NNW 1.1 mph 4.0 mph 97 % 0.21 in
15:37 56.8 °F 56.0 °F 29.60 in ENE 2.0 mph 3.5 mph 97 % 0.20 in
15:42 56.6 °F 55.8 °F 29.59 in Calm     97 % 0.20 in
15:47 56.4 °F 55.6 °F 29.59 in ENE 1.1 mph 3.5 mph 97 % 0.19 in
15:52 56.3 °F 55.5 °F 29.58 in East 3.6 mph 5.0 mph 97 % 0.20 in
15:57 56.4 °F 55.6 °F 29.56 in East 3.8 mph 5.8 mph 97 % 0.19 in
16:02 56.6 °F 55.8 °F 29.56 in East 2.2 mph 5.0 mph 97 % 0.19 in
16:07 56.8 °F 56.0 °F 29.58 in East 0.7 mph 2.3 mph 97 % 0.18 in
16:12 56.9 °F 56.1 °F 29.56 in East 0.4 mph 2.3 mph 97 % 0.19 in
16:17 57.1 °F 56.5 °F 29.58 in Calm     98 % 0.18 in
16:22 57.2 °F 56.6 °F 29.60 in Calm   1.2 mph 98 % 0.17 in
16:27 57.3 °F 56.7 °F 29.60 in Calm     98 % 0.17 in
16:32 57.6 °F 57.0 °F 29.60 in NW 0.2 mph 3.5 mph 98 % 0.17 in
16:37 57.7 °F 57.1 °F 29.60 in North 0.9 mph 2.3 mph 98 % 0.17 in
16:42 57.8 °F 57.2 °F 29.59 in Calm     98 % 0.16 in
16:47 57.7 °F 57.1 °F 29.59 in North 0.5 mph 2.0 mph 98 % 0.16 in
16:52 57.5 °F 56.7 °F 29.60 in North 0.4 mph 2.3 mph 97 % 0.15 in
16:57 57.3 °F 56.5 °F 29.60 in Calm   1.2 mph 97 % 0.16 in
17:02 57.2 °F 56.6 °F 29.59 in Calm     98 % 0.15 in
17:07 57.1 °F 56.5 °F 29.59 in North 1.2 mph 3.5 mph 98 % 0.15 in
17:12 57.0 °F 56.4 °F 29.59 in Calm     98 % 0.14 in
17:17 57.0 °F 56.4 °F 29.59 in Calm     98 % 0.14 in
17:22 57.1 °F 56.5 °F 29.58 in Calm     98 % 0.14 in
17:27 57.2 °F 56.6 °F 29.59 in Calm     98 % 0.14 in
17:32 57.4 °F 56.8 °F 29.59 in Calm   1.2 mph 98 % 0.13 in
17:37 57.7 °F 57.1 °F 29.58 in Calm   1.2 mph 98 % 0.13 in
17:42 58.1 °F 57.5 °F 29.59 in Calm   1.2 mph 98 % 0.13 in
17:48 58.8 °F 58.2 °F 29.58 in SE 0.3 mph 3.5 mph 98 % 0.13 in
17:53 59.4 °F 58.8 °F 29.59 in SSE 0.8 mph 4.0 mph 98 % 0.13 in
17:58 60.0 °F 59.4 °F 29.58 in SSE 2.3 mph 4.0 mph 98 % 0.12 in
18:03 60.3 °F 59.7 °F 29.58 in SE 2.1 mph 4.6 mph 98 % 0.12 in
18:08 60.4 °F 59.8 °F 29.58 in SE 0.3 mph 2.3 mph 98 % 0.12 in
18:10 60.5 °F 59.9 °F 29.58 in SE 0.9 mph 3.0 mph 98 % 0.11 in
18:15 60.6 °F 60.0 °F 29.57 in SE 0.8 mph 3.5 mph 98 % 0.11 in
18:20 60.7 °F 60.1 °F 29.57 in Calm   1.2 mph 98 % 0.10 in
18:25 60.8 °F 60.2 °F 29.57 in SE 0.2 mph 2.0 mph 98 % 0.10 in
18:27 60.8 °F 60.2 °F 29.57 in SSE 3.8 mph 5.8 mph 98 % 0.10 in
18:32 60.8 °F 60.2 °F 29.56 in SE 1.0 mph 3.5 mph 98 % 0.10 in
18:37 60.7 °F 60.1 °F 29.56 in SSE 0.3 mph 2.3 mph 98 % 0.10 in
18:42 60.6 °F 60.0 °F 29.55 in SSE 0.2 mph 1.2 mph 98 % 0.09 in
18:47 60.6 °F 60.0 °F 29.55 in SE 2.7 mph 5.8 mph 98 % 0.09 in
18:52 60.5 °F 59.9 °F 29.54 in SE 1.9 mph 4.6 mph 98 % 0.08 in
18:57 60.4 °F 59.8 °F 29.54 in East 1.8 mph 3.5 mph 98 % 0.07 in
19:02 60.3 °F 59.7 °F 29.54 in ESE 0.7 mph 2.3 mph 98 % 0.06 in
19:07 60.2 °F 59.6 °F 29.54 in ESE 0.1 mph 1.2 mph 98 % 0.05 in
19:12 60.1 °F 59.5 °F 29.56 in South 1.4 mph 3.5 mph 98 % 0.05 in
19:17 60.0 °F 59.4 °F 29.58 in Calm   2.3 mph 98 % 0.04 in
19:22 60.0 °F 59.4 °F 29.58 in Calm   1.2 mph 98 % 0.03 in
19:27 59.9 °F 59.3 °F 29.57 in SSE 0.5 mph 2.3 mph 98 % 0.03 in
19:32 59.8 °F 59.2 °F 29.57 in SE 1.0 mph 3.0 mph 98 % 0.02 in
19:37 59.8 °F 59.2 °F 29.57 in WSW 1.2 mph 3.5 mph 98 % 0.01 in
19:42 59.7 °F 59.1 °F 29.58 in Calm   2.0 mph 98 % 0.01 in
19:47 59.6 °F 59.0 °F 29.57 in Calm     98 % 0.00 in
19:52 59.6 °F 59.0 °F 29.58 in Calm   1.0 mph 98 % 0.00 in
19:55 59.5 °F 58.9 °F 29.58 in South 2.2 mph 3.5 mph 98 % 0.00 in
20:00 59.4 °F 58.8 °F 29.57 in South 0.4 mph 1.2 mph 98 % 0.00 in
20:05 59.4 °F 58.8 °F 29.57 in Calm     98 % 0.00 in
20:10 59.3 °F 58.7 °F 29.57 in SE 4.0 mph 6.9 mph 98 % 0.00 in
20:15 59.1 °F 58.5 °F 29.57 in Calm   2.3 mph 98 % 0.00 in
20:20 59.0 °F 58.4 °F 29.56 in SE 0.5 mph 2.0 mph 98 % 0.00 in
20:25 58.9 °F 58.3 °F 29.56 in SE 0.2 mph 1.0 mph 98 % 0.00 in
20:30 58.7 °F 58.1 °F 29.55 in SE 0.1 mph 1.2 mph 98 % 0.00 in
20:35 58.6 °F 58.0 °F 29.55 in SE 0.3 mph 3.5 mph 98 % 0.00 in
20:36 58.6 °F 58.1 °F 29.56 in SE 1.0 mph 4.0 mph 98 % 0.00 in
20:40 58.6 °F 58.0 °F 29.55 in SE 2.0 mph 3.5 mph 98 % 0.00 in
20:45 58.5 °F 57.9 °F 29.56 in SE 1.0 mph 3.0 mph 98 % 0.00 in
20:50 58.4 °F 57.8 °F 29.56 in SE 0.9 mph 3.5 mph 98 % 0.00 in
20:55 58.4 °F 57.8 °F 29.55 in ESE 1.0 mph 7.0 mph 98 % 0.00 in
20:56 58.4 °F 57.8 °F 29.56 in East 0.3 mph 3.5 mph 98 % 0.00 in
21:01 58.3 °F 57.7 °F 29.55 in SE 0.1 mph 1.2 mph 98 % 0.00 in
21:06 58.2 °F 57.6 °F 29.55 in Calm   1.2 mph 98 % 0.00 in
21:11 58.2 °F 57.6 °F 29.55 in SE 2.0 mph 5.8 mph 98 % 0.00 in
21:16 58.2 °F 57.6 °F 29.55 in SE 0.4 mph 3.5 mph 98 % 0.00 in
21:21 58.2 °F 57.6 °F 29.55 in SE 3.2 mph 8.1 mph 98 % 0.00 in
21:26 58.1 °F 57.5 °F 29.55 in South 3.7 mph 8.1 mph 98 % 0.00 in
21:31 58.2 °F 57.6 °F 29.55 in SE 2.3 mph 9.2 mph 98 % 0.00 in
21:36 58.2 °F 57.6 °F 29.55 in SE 1.1 mph 3.5 mph 98 % 0.00 in
21:41 58.2 °F 57.6 °F 29.55 in SE 2.1 mph 3.5 mph 98 % 0.00 in
21:46 58.3 °F 57.7 °F 29.55 in SSE 2.9 mph 4.6 mph 98 % 0.00 in
21:51 58.3 °F 57.7 °F 29.54 in SE 4.1 mph 7.0 mph 98 % 0.00 in
21:56 58.3 °F 57.7 °F 29.55 in SE 2.0 mph 7.0 mph 98 % 0.00 in
22:01 58.4 °F 57.8 °F 29.55 in SE 4.2 mph 5.8 mph 98 % 0.00 in
22:05 58.5 °F 57.9 °F 29.54 in ESE 1.0 mph 3.5 mph 98 % 0.00 in
22:10 58.6 °F 58.0 °F 29.54 in SE 1.3 mph 3.5 mph 98 % 0.00 in
22:15 58.7 °F 58.1 °F 29.54 in SE 5.1 mph 9.2 mph 98 % 0.00 in
22:20 59.1 °F 58.5 °F 29.53 in ESE 2.7 mph 4.6 mph 98 % 0.00 in
22:25 59.4 °F 58.8 °F 29.53 in SSE 3.9 mph 6.9 mph 98 % 0.00 in
22:30 59.5 °F 58.9 °F 29.52 in SSE 1.1 mph 5.8 mph 98 % 0.00 in
22:35 59.5 °F 58.9 °F 29.52 in SSE 5.8 mph 9.2 mph 98 % 0.00 in
22:40 59.4 °F 58.8 °F 29.53 in South 5.8 mph 10.4 mph 98 % 0.00 in
22:45 59.4 °F 58.8 °F 29.53 in SE 4.9 mph 5.8 mph 98 % 0.00 in
22:50 59.4 °F 58.8 °F 29.53 in SE 7.7 mph 16.1 mph 98 % 0.00 in
22:55 59.5 °F 58.9 °F 29.52 in SSE 6.5 mph 11.5 mph 98 % 0.00 in
23:00 59.6 °F 59.0 °F 29.52 in SE 5.4 mph 9.2 mph 98 % 0.00 in
23:04 59.7 °F 59.1 °F 29.52 in SE 2.7 mph 9.2 mph 98 % 0.00 in
23:09 59.7 °F 59.1 °F 29.52 in ESE 5.0 mph 7.0 mph 98 % 0.00 in
23:14 59.8 °F 59.2 °F 29.52 in SE 2.3 mph 3.5 mph 98 % 0.00 in
23:19 59.8 °F 59.2 °F 29.52 in SSE 5.2 mph 8.1 mph 98 % 0.00 in
23:24 60.0 °F 59.4 °F 29.52 in SSE 6.3 mph 9.2 mph 98 % 0.00 in
23:29 60.0 °F 59.4 °F 29.52 in SSE 5.4 mph 7.0 mph 98 % 0.00 in
23:35 60.2 °F 59.6 °F 29.52 in SE 3.7 mph 8.1 mph 98 % 0.00 in
23:40 60.3 °F 59.7 °F 29.52 in SSE 7.4 mph 11.5 mph 98 % 0.00 in
23:45 60.6 °F 60.0 °F 29.52 in South 2.9 mph 13.8 mph 98 % 0.00 in
23:50 60.7 °F 60.1 °F 29.51 in SSE 3.4 mph 11.5 mph 98 % 0.00 in
23:55 60.9 °F 60.3 °F 29.51 in SSE 3.3 mph 8.1 mph 98 % 0.00 in
Crab Meadow Weather
Compliments of Weather Underground - 3 mb

Script developed by  Jim McMurry - jmcmurry@mwt.net Adapted for the template by  Wim van der Kuil - Leuven-Template.eu

Recycling: The U.S. is the #1 trash-producing country in the world at 1,609 pounds per person per year. This means that 5% of the world's people generate 40% of the world's waste.